Location: West Sayville
(40.7279°N, 73.0976°W)
Time: 05:32:17
(UTC+00:00)

In-Cosmos 22 Rocket - Pass Details

Date: 29 October 2020
Orbit: 790 x 888 km, 81.2° (Epoch: 29 November)

Event Time Altitude Azimuth Distance (km) Brightness Sun altitude
Rises 22:39:28 0° 353° (N) 3,315 7.3 -9.6°
Reaches altitude 10° 22:41:52 10° 357° (N) 2,390 6.5 -10.1°
Maximum altitude 22:47:12 62° 78° (ENE) 917 4.1 -11.1°
Drops below altitude 10° 22:52:39 10° 159° (SSE) 2,431 6.5 -12.1°
Sets 22:55:06 0° 163° (SSE) 3,376 7.2 -12.5°
